Change the Weather History Date:

Saturday, April 19, 2014

  Actual Average Record
Temperature  
Mean Temperature 63 °F 60 °F  
Max Temperature 76 °F 75 °F 97 °F (1938)
Min Temperature 50 °F 45 °F 29 °F (1975)
Degree Days  
Heating Degree Days 2 6  
Month to date heating degree days 108 161  
Since 1 July heating degree days 2736 2992  
Cooling Degree Days 0 1  
Month to date cooling degree days 20 12  
Year to date cooling degree days 20 15  
Growing Degree Days 12 (Base 50)    
Moisture  
Dew Point 40 °F    
Average Humidity 50    
Maximum Humidity 77    
Minimum Humidity 23    
Precipitation  
Precipitation 0.01 in 0.01 in 0.51 in (1923)
Month to date precipitation 0.02 0.31  
Year to date precipitation 0.57 3.23  
Sea Level Pressure  
Sea Level Pressure 29.85 in    
Wind  
Wind Speed 6 mph (SSE)    
Max Wind Speed 22 mph    
Max Gust Speed 29 mph    
Visibility 10 miles    
Events Rain    
T = Trace of Precipitation, MM = Missing Value Source: NWS Daily Summary

Daily Weather History Graph

Daily Weather History Graph

Search for Another Location

Airport or City:

Trip Planner

Search our weather history database for the weather conditions in past years. The results will help you decide how hot, cold, wet, or windy it might be!

Date:

Astronomy

Apr. 19, 2014 Rise Set
Actual Time 5:58 AM MST 7:11 PM MST
Civil Twilight 5:31 AM MST 7:38 PM MST
Nautical Twilight 5:00 AM MST 8:09 PM MST
Astronomical Twilight 4:27 AM MST 8:42 PM MST
Moon 11:51 PM MST (4/19) 9:25 AM MST (4/19)
Length of Visible Light 14h 06m
Length of Day
13h 13m
Waning Gibbous, 77% of the Moon is Illuminated
Apr 19
Waning Gibbous
Apr 22
Last Quarter
Apr 28
New
May 6
First Quarter
May 14
Full

Hourly Weather History & Observations

Time (MST) Temp. Dew Point Humidity Pressure Visibility Wind Dir Wind Speed Gust Speed Precip Events Conditions
12:51 AM 55.9 °F 46.0 °F 69% 29.83 in 10.0 mi ESE 12.7 mph - 0.00 in   Overcast
1:51 AM 57.2 °F 44.6 °F 63% 29.99 in 10.0 mi ENE 4.6 mph - N/A   Overcast
2:51 AM 55.9 °F 46.0 °F 69% 29.81 in 10.0 mi ESE 9.2 mph - N/A   Overcast
3:51 AM 55.9 °F 45.0 °F 67% 29.83 in 10.0 mi SE 8.1 mph - N/A   Overcast
4:51 AM 55.0 °F 46.9 °F 74% 29.83 in 10.0 mi Calm Calm - N/A   Overcast
5:51 AM 52.0 °F 45.0 °F 77% 29.83 in 10.0 mi ENE 5.8 mph - N/A   Scattered Clouds
6:51 AM 55.0 °F 43.0 °F 64% 29.85 in 10.0 mi Calm Calm - N/A   Clear
7:51 AM 57.9 °F 46.0 °F 65% 29.86 in 10.0 mi NNW 4.6 mph - N/A   Clear
8:51 AM 64.9 °F 41.0 °F 42% 29.85 in 10.0 mi SE 9.2 mph - N/A   Clear
9:51 AM 69.1 °F 39.0 °F 33% 29.85 in 10.0 mi Variable 3.5 mph - N/A   Partly Cloudy
10:51 AM 71.1 °F 37.9 °F 30% 29.86 in 10.0 mi East 5.8 mph - N/A   Clear
11:51 AM 70.0 °F 37.0 °F 30% 29.86 in 10.0 mi Variable 5.8 mph - N/A   Scattered Clouds
12:51 PM 73.0 °F 36.0 °F 26% 29.85 in 10.0 mi South 6.9 mph - N/A   Mostly Cloudy
1:51 PM 68.0 °F 46.0 °F 45% 29.85 in 10.0 mi SE 5.8 mph - 0.01 in Rain Light Rain
2:51 PM 73.0 °F 37.9 °F 28% 29.82 in 10.0 mi SSE 5.8 mph - 0.00 in   Clear
3:51 PM 75.0 °F 36.0 °F 24% 29.81 in 10.0 mi WSW 9.2 mph 18.4 mph 0.00 in   Clear
4:51 PM 73.9 °F 35.1 °F 24% 29.81 in 10.0 mi SW 6.9 mph - 0.00 in   Clear
5:51 PM 75.0 °F 36.0 °F 24% 29.83 in 10.0 mi WSW 12.7 mph - N/A   Scattered Clouds
6:51 PM 72.0 °F 36.0 °F 27% 29.83 in 10.0 mi West 8.1 mph - N/A   Mostly Cloudy
7:51 PM 69.1 °F 39.0 °F 33% 29.86 in 10.0 mi NE 11.5 mph - 0.00 in   Overcast
8:51 PM 70.0 °F 35.1 °F 28% 29.86 in 10.0 mi South 3.5 mph - 0.00 in   Overcast
9:51 PM 66.9 °F 39.0 °F 36% 29.87 in 10.0 mi WSW 4.6 mph - N/A   Mostly Cloudy
10:51 PM 60.1 °F 39.9 °F 47% 29.89 in 10.0 mi SE 3.5 mph - N/A   Mostly Cloudy
11:51 PM 57.0 °F 36.0 °F 45% 29.90 in 10.0 mi SE 6.9 mph - N/A   Partly Cloudy